Location: Alma
(38.7220°N, 88.9090°W)
Time: 21:12:55
(UTC-06:00)

Vanguard 2 - Pass Details

Date: 15 November 2019
Orbit: 553 x 2938 km, 32.9° (Epoch: 09 December)

Event Time Altitude Azimuth Distance (km) Brightness Sun altitude
Rises 13:46:08 0° 266° (W) 2,998 11.1 25.6°
Reaches altitude 10° 13:49:01 10° 251° (WSW) 1,921 10.5 25.3°
Maximum altitude 13:52:15 22° 199° (SSW) 1,239 10.7 24.9°
Drops below altitude 10° 13:55:21 10° 147° (SSE) 1,833 9.9 24.6°
Sets 13:58:02 0° 131° (SE) 2,819 10.5 24.3°
